Location: Cheching
(60.0667°N, 164.2167°W)
Time: 22:05:35
(UTC+00:00)

XW-2D - Pass Details

Date: 25 January 2021
Orbit: 505 x 525 km, 97.5° (Epoch: 07 March)

Event Time Altitude Azimuth Distance (km) Brightness Sun altitude
Rises 04:49:51 0° 200° (SSW) 2,628 ? -13.9°
Reaches altitude 10° 04:52:17 10° 216° (SW) 1,750 ? -14.2°
Maximum altitude 04:55:17 22° 269° (W) 1,174 ? -14.6°
Drops below altitude 10° 04:58:19 10° 322° (NW) 1,771 ? -15.0°
Sets 05:00:49 0° 338° (NNW) 2,669 ? -15.3°
